User: anonymous   Login
Location: Brede
(50.9167°N, 0.6000°E)
Time: 07:29:04
(UTC+00:00)
Language:

Okean 1 Rocket - Orbit

View from above orbital plane
View from above orbital plane
View from above satellite
View from above satellite

Ground track
Ground track

The orbit data is extracted from the following two-line orbital elements,

1 19275U 88056B   20295.07567516 +.00000083 +00000-0 +72173-5 0  9992
2 19275 082.5135 267.4097 0021073 138.4004 221.8819 14.82760827723231
Epoch (UTC): 21 October 2020 01:48:58
Eccentricity: 0.0021073
inclination: 82.5135°
perigee height: 606 km
apogee height: 635 km
right ascension of ascending node: 267.4097°
argument of perigee: 138.4004°
revolutions per day: 14.82760827
mean anomaly at epoch: 221.8819°
orbit number at epoch: 72323

The dashed part of the orbit path shows where the satellite is in the earth's shadow,  

DLR